Time,TemperatureF,DewpointF,PressureIn,WindDirection,WindDirectionDegrees,WindSpeedMPH,WindSpeedGustMPH,Humidity,HourlyPrecipIn,Conditions,Clouds,dailyrainin,SoftwareType,DateUTC
2013-09-14 00:01:00,80.5,72.6,29.82,SE,145,0.0,0.0,77,0.00,,OVC,0.00,WeatherDisplay:10.37,2013-09-14 04:01:00,
2013-09-14 00:02:00,80.3,72.4,29.82,SE,145,0.0,0.0,77,0.00,,OVC,0.00,WeatherDisplay:10.37,2013-09-14 04:02:00,
2013-09-14 00:07:00,80.1,72.2,29.82,SE,145,0.0,0.0,77,0.00,,OVC,0.00,WeatherDisplay:10.37,2013-09-14 04:07:00,
2013-09-14 00:12:00,79.8,72.3,29.82,SE,145,0.0,0.0,78,0.00,,OVC,0.00,WeatherDisplay:10.37,2013-09-14 04:12:00,
2013-09-14 00:17:00,79.6,72.1,29.83,SE,145,0.0,0.0,78,0.00,,OVC,0.00,WeatherDisplay:10.37,2013-09-14 04:17:00,
2013-09-14 00:22:00,79.4,72.3,29.83,SE,145,0.0,0.0,79,0.00,,OVC,0.00,WeatherDisplay:10.37,2013-09-14 04:22:00,
2013-09-14 00:27:00,79.2,72.9,29.83,SE,145,0.0,0.0,81,0.00,,OVC,0.00,WeatherDisplay:10.37,2013-09-14 04:27:00,
2013-09-14 00:32:00,79.0,72.3,29.83,SE,145,0.0,0.0,80,0.00,,OVC,0.00,WeatherDisplay:10.37,2013-09-14 04:32:00,
2013-09-14 00:37:00,78.8,72.1,29.83,SE,145,0.0,0.0,80,0.00,,OVC,0.00,WeatherDisplay:10.37,2013-09-14 04:37:00,
2013-09-14 00:42:00,78.8,72.1,29.83,SE,145,0.0,0.0,80,0.00,,OVC,0.00,WeatherDisplay:10.37,2013-09-14 04:42:00,
2013-09-14 00:47:00,78.8,72.1,29.82,SE,145,0.0,0.0,80,0.00,,OVC,0.00,WeatherDisplay:10.37,2013-09-14 04:47:00,
2013-09-14 00:52:00,78.6,72.3,29.82,SE,145,0.0,0.0,81,0.00,,OVC,0.00,WeatherDisplay:10.37,2013-09-14 04:52:00,
2013-09-14 00:57:00,78.8,72.5,29.82,SE,145,0.0,0.0,81,0.00,,OVC,0.00,WeatherDisplay:10.37,2013-09-14 04:57:00,
2013-09-14 01:02:00,78.8,72.5,29.82,SE,145,0.0,0.0,81,0.00,,OVC,0.00,WeatherDisplay:10.37,2013-09-14 05:02:00,
2013-09-14 01:07:00,78.8,72.5,29.82,SE,145,0.0,0.0,81,0.00,,OVC,0.00,WeatherDisplay:10.37,2013-09-14 05:07:00,
2013-09-14 01:12:00,78.6,72.6,29.82,SE,145,0.0,0.0,82,0.00,,OVC,0.00,WeatherDisplay:10.37,2013-09-14 05:12:00,
2013-09-14 01:17:00,78.6,72.6,29.82,SE,145,0.0,0.0,82,0.00,,OVC,0.00,WeatherDisplay:10.37,2013-09-14 05:17:00,
2013-09-14 01:22:00,78.6,72.6,29.82,SE,145,0.0,0.0,82,0.00,,OVC,0.00,WeatherDisplay:10.37,2013-09-14 05:22:00,
2013-09-14 01:27:00,78.5,72.9,29.82,SE,145,0.0,0.0,83,0.00,,OVC,0.00,WeatherDisplay:10.37,2013-09-14 05:27:00,
2013-09-14 01:32:00,78.5,72.9,29.82,SE,145,0.0,0.0,83,0.00,,OVC,0.00,WeatherDisplay:10.37,2013-09-14 05:32:00,
2013-09-14 01:37:00,78.3,73.1,29.82,SE,145,0.0,0.0,84,0.00,,OVC,0.00,WeatherDisplay:10.37,2013-09-14 05:37:00,
2013-09-14 01:42:00,78.1,72.9,29.82,SE,145,0.0,0.0,84,0.00,,OVC,0.00,WeatherDisplay:10.37,2013-09-14 05:42:00,
2013-09-14 01:47:00,78.1,73.2,29.82,SE,145,0.0,0.0,85,0.00,,OVC,0.00,WeatherDisplay:10.37,2013-09-14 05:47:00,
2013-09-14 01:52:00,78.1,73.2,29.82,SE,145,0.0,0.0,85,0.00,,OVC,0.00,WeatherDisplay:10.37,2013-09-14 05:52:00,
2013-09-14 01:57:00,78.1,73.2,29.82,SE,145,0.0,0.0,85,0.00,,OVC,0.00,WeatherDisplay:10.37,2013-09-14 05:57:00,
2013-09-14 02:02:00,78.1,73.2,29.82,SE,145,0.0,0.0,85,0.00,,OVC,0.00,WeatherDisplay:10.37,2013-09-14 06:02:00,
2013-09-14 02:07:00,77.9,73.0,29.82,SE,145,0.0,0.0,85,0.00,,OVC,0.00,WeatherDisplay:10.37,2013-09-14 06:07:00,
2013-09-14 02:12:00,77.9,73.4,29.82,SE,145,0.0,0.0,86,0.00,,OVC,0.00,WeatherDisplay:10.37,2013-09-14 06:12:00,
2013-09-14 02:17:00,77.7,73.2,29.82,SE,145,0.0,0.0,86,0.00,,OVC,0.00,WeatherDisplay:10.37,2013-09-14 06:17:00,
2013-09-14 02:22:00,77.7,73.2,29.82,SE,145,0.0,0.0,86,0.00,,OVC,0.00,WeatherDisplay:10.37,2013-09-14 06:22:00,
2013-09-14 02:27:00,77.6,73.4,29.82,SE,145,0.0,0.0,87,0.00,,OVC,0.00,WeatherDisplay:10.37,2013-09-14 06:27:00,
2013-09-14 02:32:00,77.6,73.4,29.81,SE,145,0.0,0.0,87,0.00,,OVC,0.00,WeatherDisplay:10.37,2013-09-14 06:32:00,
2013-09-14 02:37:00,77.4,73.2,29.81,SE,145,0.0,0.0,87,0.00,,OVC,0.00,WeatherDisplay:10.37,2013-09-14 06:37:00,
2013-09-14 02:42:00,77.2,73.0,29.81,SE,145,0.0,0.0,87,0.00,,OVC,0.00,WeatherDisplay:10.37,2013-09-14 06:42:00,
2013-09-14 02:47:00,77.2,73.4,29.81,SE,145,0.0,0.0,88,0.00,,OVC,0.00,WeatherDisplay:10.37,2013-09-14 06:47:00,
2013-09-14 02:52:00,77.0,73.2,29.81,SE,145,0.0,0.0,88,0.00,,OVC,0.00,WeatherDisplay:10.37,2013-09-14 06:52:00,
2013-09-14 02:57:00,77.0,73.2,29.81,SE,145,0.0,0.0,88,0.00,,OVC,0.00,WeatherDisplay:10.37,2013-09-14 06:57:00,
2013-09-14 03:03:00,76.8,73.0,29.80,SE,145,0.0,0.0,88,0.00,,OVC,0.00,WeatherDisplay:10.37,2013-09-14 07:03:00,
2013-09-14 03:08:00,76.7,72.9,29.80,SE,145,0.0,0.0,88,0.00,,OVC,0.00,WeatherDisplay:10.37,2013-09-14 07:08:00,
2013-09-14 03:13:00,76.7,73.2,29.80,SE,145,0.0,0.0,89,0.00,,OVC,0.00,WeatherDisplay:10.37,2013-09-14 07:13:00,
2013-09-14 03:18:00,76.7,73.2,29.80,SE,145,0.0,0.0,89,0.00,,OVC,0.00,WeatherDisplay:10.37,2013-09-14 07:18:00,
2013-09-14 03:23:00,76.5,73.0,29.80,SE,145,0.0,0.0,89,0.00,,OVC,0.00,WeatherDisplay:10.37,2013-09-14 07:23:00,
2013-09-14 03:28:00,76.3,72.8,29.80,SE,145,0.0,0.0,89,0.00,,OVC,0.00,WeatherDisplay:10.37,2013-09-14 07:28:00,
2013-09-14 03:33:00,76.3,73.1,29.79,SE,145,0.0,0.0,90,0.00,,OVC,0.00,WeatherDisplay:10.37,2013-09-14 07:33:00,
2013-09-14 03:38:00,76.3,73.1,29.79,SE,145,0.0,0.0,90,0.00,,OVC,0.00,WeatherDisplay:10.37,2013-09-14 07:38:00,
2013-09-14 03:43:00,76.1,73.0,29.79,SE,145,0.0,0.0,90,0.00,,OVC,0.00,WeatherDisplay:10.37,2013-09-14 07:43:00,
2013-09-14 03:48:00,76.0,72.9,29.79,SE,145,0.0,0.0,90,0.00,,OVC,0.00,WeatherDisplay:10.37,2013-09-14 07:48:00,
2013-09-14 03:53:00,76.0,72.9,29.79,SE,145,0.0,0.0,90,0.00,,OVC,0.00,WeatherDisplay:10.37,2013-09-14 07:53:00,
2013-09-14 03:58:00,76.1,73.3,29.79,SE,145,0.0,0.0,91,0.00,,OVC,0.00,WeatherDisplay:10.37,2013-09-14 07:58:00,
2013-09-14 04:03:00,76.1,73.3,29.79,SE,145,0.0,0.0,91,0.00,,OVC,0.00,WeatherDisplay:10.37,2013-09-14 08:03:00,
2013-09-14 04:08:00,76.3,73.5,29.79,SE,145,0.0,0.0,91,0.00,,OVC,0.00,WeatherDisplay:10.37,2013-09-14 08:08:00,
2013-09-14 04:13:00,76.3,73.5,29.79,SE,145,0.0,0.0,91,0.00,,OVC,0.00,WeatherDisplay:10.37,2013-09-14 08:13:00,
2013-09-14 04:18:00,76.1,73.3,29.79,SE,145,0.0,0.0,91,0.00,,OVC,0.00,WeatherDisplay:10.37,2013-09-14 08:18:00,
2013-09-14 04:23:00,76.1,73.3,29.79,SE,145,0.0,0.0,91,0.00,,OVC,0.00,WeatherDisplay:10.37,2013-09-14 08:23:00,
2013-09-14 04:28:00,76.0,73.2,29.79,SE,145,0.0,0.0,91,0.00,,OVC,0.00,WeatherDisplay:10.37,2013-09-14 08:28:00,
2013-09-14 04:33:00,76.0,73.2,29.79,SE,145,0.0,0.0,91,0.00,,OVC,0.00,WeatherDisplay:10.37,2013-09-14 08:33:00,
2013-09-14 04:38:00,75.8,73.3,29.79,SE,145,0.0,0.0,92,0.00,,OVC,0.00,WeatherDisplay:10.37,2013-09-14 08:38:00,
2013-09-14 04:43:00,75.8,73.3,29.79,SE,145,0.0,0.0,92,0.00,,OVC,0.00,WeatherDisplay:10.37,2013-09-14 08:43:00,
2013-09-14 04:48:00,75.8,73.3,29.79,SE,145,0.0,0.0,92,0.00,,OVC,0.00,WeatherDisplay:10.37,2013-09-14 08:48:00,
2013-09-14 04:53:00,75.8,73.3,29.79,SE,145,0.0,0.0,92,0.00,,OVC,0.00,WeatherDisplay:10.37,2013-09-14 08:53:00,
2013-09-14 04:58:00,75.8,73.3,29.79,SE,145,0.0,0.0,92,0.00,,OVC,0.00,WeatherDisplay:10.37,2013-09-14 08:58:00,
2013-09-14 05:03:00,75.8,73.3,29.80,SE,145,0.0,0.0,92,0.00,,OVC,0.00,WeatherDisplay:10.37,2013-09-14 09:03:00,
2013-09-14 05:08:00,75.6,73.1,29.80,SE,145,0.0,0.0,92,0.00,,OVC,0.00,WeatherDisplay:10.37,2013-09-14 09:08:00,
2013-09-14 05:13:00,75.6,73.1,29.80,SE,145,0.0,0.0,92,0.00,,OVC,0.00,WeatherDisplay:10.37,2013-09-14 09:13:00,
2013-09-14 05:18:00,75.6,73.1,29.81,SE,145,0.0,0.0,92,0.00,,OVC,0.00,WeatherDisplay:10.37,2013-09-14 09:18:00,
2013-09-14 05:23:00,75.4,72.9,29.81,SE,145,0.0,0.0,92,0.00,,OVC,0.00,WeatherDisplay:10.37,2013-09-14 09:23:00,
2013-09-14 05:28:00,75.4,72.9,29.81,SE,145,0.0,0.0,92,0.00,,OVC,0.00,WeatherDisplay:10.37,2013-09-14 09:28:00,
2013-09-14 05:33:00,75.4,72.9,29.80,SE,145,0.0,0.0,92,0.00,,OVC,0.00,WeatherDisplay:10.37,2013-09-14 09:33:00,
2013-09-14 05:38:00,75.4,73.2,29.80,SE,145,0.0,0.0,93,0.00,,OVC,0.00,WeatherDisplay:10.37,2013-09-14 09:38:00,
2013-09-14 05:43:00,75.3,73.1,29.80,SE,145,0.0,0.0,93,0.00,,OVC,0.00,WeatherDisplay:10.37,2013-09-14 09:43:00,
2013-09-14 05:48:00,75.4,73.2,29.80,SE,145,0.0,0.0,93,0.00,,OVC,0.00,WeatherDisplay:10.37,2013-09-14 09:48:00,
2013-09-14 05:53:00,75.3,73.1,29.80,SE,145,0.0,0.0,93,0.00,,OVC,0.00,WeatherDisplay:10.37,2013-09-14 09:53:00,
2013-09-14 05:58:00,75.1,72.9,29.80,SE,145,0.0,0.0,93,0.00,,OVC,0.00,WeatherDisplay:10.37,2013-09-14 09:58:00,
2013-09-14 06:03:00,75.1,72.9,29.81,SE,145,0.0,0.0,93,0.00,,OVC,0.00,WeatherDisplay:10.37,2013-09-14 10:03:00,
2013-09-14 06:08:00,74.9,72.7,29.81,SE,145,0.0,0.0,93,0.00,,OVC,0.00,WeatherDisplay:10.37,2013-09-14 10:08:00,
2013-09-14 06:13:00,75.1,72.9,29.81,SE,145,0.0,0.0,93,0.00,,OVC,0.00,WeatherDisplay:10.37,2013-09-14 10:13:00,
2013-09-14 06:18:00,75.1,72.9,29.81,SE,145,0.0,0.0,93,0.00,,OVC,0.00,WeatherDisplay:10.37,2013-09-14 10:18:00,
2013-09-14 06:23:00,75.1,72.9,29.81,SE,145,0.0,0.0,93,0.00,,OVC,0.00,WeatherDisplay:10.37,2013-09-14 10:23:00,
2013-09-14 06:28:00,75.1,72.9,29.81,SE,145,0.0,0.0,93,0.00,,OVC,0.00,WeatherDisplay:10.37,2013-09-14 10:28:00,
2013-09-14 06:33:00,75.1,72.9,29.82,SE,145,0.0,0.0,93,0.00,,OVC,0.00,WeatherDisplay:10.37,2013-09-14 10:33:00,
2013-09-14 06:38:00,75.1,72.9,29.82,SE,145,0.0,0.0,93,0.00,,OVC,0.00,WeatherDisplay:10.37,2013-09-14 10:38:00,
2013-09-14 06:43:00,74.9,72.7,29.82,SE,145,0.0,0.0,93,0.00,,OVC,0.00,WeatherDisplay:10.37,2013-09-14 10:43:00,
2013-09-14 06:48:00,74.9,73.1,29.82,SE,145,0.0,0.0,94,0.00,,OVC,0.00,WeatherDisplay:10.37,2013-09-14 10:48:00,
2013-09-14 06:53:00,74.9,73.1,29.82,SE,145,0.0,0.0,94,0.00,,OVC,0.00,WeatherDisplay:10.37,2013-09-14 10:53:00,
2013-09-14 06:58:00,74.9,73.1,29.82,SE,145,0.0,0.0,94,0.00,,OVC,0.00,WeatherDisplay:10.37,2013-09-14 10:58:00,
2013-09-14 07:03:00,74.7,72.9,29.83,SE,145,0.0,0.0,94,0.00,,OVC,0.00,WeatherDisplay:10.37,2013-09-14 11:03:00,
2013-09-14 07:08:00,74.7,72.9,29.83,SE,145,0.0,0.0,94,0.00,,OVC,0.00,WeatherDisplay:10.37,2013-09-14 11:08:00,
2013-09-14 07:13:00,74.7,72.9,29.83,SE,145,0.0,0.0,94,0.00,,OVC,0.00,WeatherDisplay:10.37,2013-09-14 11:13:00,
2013-09-14 07:18:00,74.6,72.8,29.84,SE,145,0.0,0.0,94,0.00,,OVC,0.00,WeatherDisplay:10.37,2013-09-14 11:18:00,
2013-09-14 07:23:00,74.6,72.8,29.84,SE,145,0.0,0.0,94,0.00,,OVC,0.00,WeatherDisplay:10.37,2013-09-14 11:23:00,
2013-09-14 07:28:00,74.7,72.9,29.84,SE,145,0.0,0.0,94,0.00,,OVC,0.00,WeatherDisplay:10.37,2013-09-14 11:28:00,
2013-09-14 07:33:00,74.7,72.9,29.84,SE,145,0.0,0.0,94,0.00,,OVC,0.00,WeatherDisplay:10.37,2013-09-14 11:33:00,
2013-09-14 07:38:00,74.9,73.1,29.84,SE,145,0.0,0.0,94,0.00,,OVC,0.00,WeatherDisplay:10.37,2013-09-14 11:38:00,
2013-09-14 07:43:00,75.1,73.3,29.84,SE,145,0.0,0.0,94,0.00,,OVC,0.00,WeatherDisplay:10.37,2013-09-14 11:43:00,
2013-09-14 07:48:00,75.3,73.8,29.85,SE,145,0.0,0.0,95,0.00,,OVC,0.00,WeatherDisplay:10.37,2013-09-14 11:48:00,
2013-09-14 07:53:00,75.4,73.6,29.85,SE,145,0.0,0.0,94,0.00,,OVC,0.00,WeatherDisplay:10.37,2013-09-14 11:53:00,
2013-09-14 07:58:00,75.8,74.3,29.85,SE,145,0.0,0.0,95,0.00,,OVC,0.00,WeatherDisplay:10.37,2013-09-14 11:58:00,
2013-09-14 08:03:00,76.0,74.5,29.85,SE,145,0.0,0.0,95,0.00,,OVC,0.00,WeatherDisplay:10.37,2013-09-14 12:03:00,
2013-09-14 08:08:00,76.3,74.8,29.85,SE,145,0.0,0.0,95,0.00,,OVC,0.00,WeatherDisplay:10.37,2013-09-14 12:08:00,
2013-09-14 08:13:00,76.7,75.2,29.85,SE,145,0.0,0.0,95,0.00,,OVC,0.00,WeatherDisplay:10.37,2013-09-14 12:13:00,
2013-09-14 08:18:00,77.0,75.5,29.86,SE,145,0.0,0.0,95,0.00,,OVC,0.00,WeatherDisplay:10.37,2013-09-14 12:18:00,
2013-09-14 08:23:00,77.2,75.7,29.86,SE,145,0.0,0.0,95,0.00,,OVC,0.00,WeatherDisplay:10.37,2013-09-14 12:23:00,
2013-09-14 08:28:00,77.6,76.1,29.86,SE,145,0.0,0.0,95,0.00,,OVC,0.00,WeatherDisplay:10.37,2013-09-14 12:28:00,
2013-09-14 08:33:00,77.9,76.4,29.86,SE,145,0.0,0.0,95,0.00,,OVC,0.00,WeatherDisplay:10.37,2013-09-14 12:33:00,
2013-09-14 08:38:00,78.1,76.2,29.86,SE,146,0.0,0.0,94,0.00,,OVC,0.00,WeatherDisplay:10.37,2013-09-14 12:38:00,
2013-09-14 08:43:00,78.5,76.6,29.86,SE,146,0.0,0.0,94,0.00,,OVC,0.00,WeatherDisplay:10.37,2013-09-14 12:43:00,
2013-09-14 08:48:00,78.6,76.4,29.87,SSW,209,0.0,0.0,93,0.00,,OVC,0.00,WeatherDisplay:10.37,2013-09-14 12:48:00,
2013-09-14 08:53:00,78.6,76.4,29.87,SSW,209,0.0,0.0,93,0.00,,OVC,0.00,WeatherDisplay:10.37,2013-09-14 12:53:00,
2013-09-14 08:58:00,79.0,76.5,29.87,SW,220,0.0,0.0,92,0.00,,OVC,0.00,WeatherDisplay:10.37,2013-09-14 12:58:00,
2013-09-14 09:03:00,79.2,76.3,29.87,SW,224,0.0,0.0,91,0.00,,OVC,0.00,WeatherDisplay:10.37,2013-09-14 13:03:00,
2013-09-14 09:08:00,79.8,75.9,29.87,SW,224,0.0,0.0,88,0.00,,OVC,0.00,WeatherDisplay:10.37,2013-09-14 13:08:00,
2013-09-14 09:14:00,80.1,75.2,29.87,SW,225,0.0,0.0,85,0.00,,OVC,0.00,WeatherDisplay:10.37,2013-09-14 13:14:00,
2013-09-14 09:19:00,80.7,75.4,29.87,SW,225,0.0,0.0,84,0.00,,OVC,0.00,WeatherDisplay:10.37,2013-09-14 13:19:00,
2013-09-14 09:24:00,81.2,74.8,29.87,West,261,0.0,0.0,81,0.00,,OVC,0.00,WeatherDisplay:10.37,2013-09-14 13:24:00,
2013-09-14 09:29:00,81.6,74.5,29.87,WSW,256,0.0,0.0,79,0.00,,OVC,0.00,WeatherDisplay:10.37,2013-09-14 13:29:00,
2013-09-14 09:34:00,82.0,74.5,29.87,WSW,256,0.0,0.0,78,0.00,,OVC,0.00,WeatherDisplay:10.37,2013-09-14 13:34:00,
2013-09-14 09:39:00,82.4,74.1,29.87,WSW,256,0.0,0.0,76,0.00,,OVC,0.00,WeatherDisplay:10.37,2013-09-14 13:39:00,
2013-09-14 09:44:00,83.0,75.0,29.87,WSW,256,0.0,0.0,77,0.00,,OVC,0.00,WeatherDisplay:10.37,2013-09-14 13:44:00,
2013-09-14 09:49:00,83.2,74.4,29.88,WSW,256,0.0,0.0,75,0.00,,OVC,0.00,WeatherDisplay:10.37,2013-09-14 13:49:00,
2013-09-14 09:54:00,83.4,74.2,29.88,WSW,256,0.0,0.0,74,0.00,,OVC,0.00,WeatherDisplay:10.37,2013-09-14 13:54:00,
2013-09-14 09:59:00,83.8,74.6,29.88,WSW,256,0.0,0.0,74,0.00,,OVC,0.00,WeatherDisplay:10.37,2013-09-14 13:59:00,
2013-09-14 10:04:00,84.1,74.5,29.88,WSW,256,0.0,0.0,73,0.00,,OVC,0.00,WeatherDisplay:10.37,2013-09-14 14:04:00,
2013-09-14 10:09:00,84.5,74.5,29.88,WSW,256,0.0,0.0,72,0.00,,OVC,0.00,WeatherDisplay:10.37,2013-09-14 14:09:00,
2013-09-14 10:14:00,84.9,74.4,29.88,WSW,253,0.0,0.0,71,0.00,,OVC,0.00,WeatherDisplay:10.37,2013-09-14 14:14:00,
2013-09-14 10:19:00,85.1,74.2,29.89,WSW,253,0.0,0.0,70,0.00,,OVC,0.00,WeatherDisplay:10.37,2013-09-14 14:19:00,
2013-09-14 10:24:00,85.7,73.9,29.89,WSW,253,0.0,0.0,68,0.00,,OVC,0.00,WeatherDisplay:10.37,2013-09-14 14:24:00,
2013-09-14 10:29:00,86.5,74.7,29.89,WSW,253,0.0,0.0,68,0.00,,OVC,0.00,WeatherDisplay:10.37,2013-09-14 14:29:00,
2013-09-14 10:34:00,87.2,74.5,29.89,WSW,253,0.0,0.0,66,0.00,,OVC,0.00,WeatherDisplay:10.37,2013-09-14 14:34:00,
2013-09-14 10:39:00,87.6,74.8,29.89,WSW,253,0.0,0.0,66,0.00,,OVC,0.00,WeatherDisplay:10.37,2013-09-14 14:39:00,
2013-09-14 10:44:00,87.4,72.8,29.89,SW,235,0.0,0.0,62,0.00,,OVC,0.00,WeatherDisplay:10.37,2013-09-14 14:44:00,
2013-09-14 10:49:00,87.2,73.5,29.89,SSW,201,0.0,0.0,64,0.00,,OVC,0.00,WeatherDisplay:10.37,2013-09-14 14:49:00,
2013-09-14 10:54:00,86.7,73.1,29.89,SSW,201,0.0,0.0,64,0.00,,OVC,0.00,WeatherDisplay:10.37,2013-09-14 14:54:00,
2013-09-14 10:59:00,87.2,72.6,29.89,SSW,201,0.0,0.0,62,0.00,,OVC,0.00,WeatherDisplay:10.37,2013-09-14 14:59:00,
2013-09-14 11:04:00,87.8,73.2,29.89,South,190,0.0,0.0,62,0.00,,OVC,0.00,WeatherDisplay:10.37,2013-09-14 15:04:00,
2013-09-14 11:09:00,88.0,71.9,29.89,South,191,0.0,0.0,59,0.00,,OVC,0.00,WeatherDisplay:10.37,2013-09-14 15:09:00,
2013-09-14 11:14:00,88.4,70.7,29.90,South,190,0.0,0.0,56,0.00,,OVC,0.00,WeatherDisplay:10.37,2013-09-14 15:14:00,
2013-09-14 11:19:00,89.0,72.3,29.90,South,190,0.0,0.0,58,0.00,,OVC,0.00,WeatherDisplay:10.37,2013-09-14 15:19:00,
2013-09-14 11:24:00,89.5,71.7,29.90,South,190,0.0,0.0,56,0.00,,OVC,0.00,WeatherDisplay:10.37,2013-09-14 15:24:00,
2013-09-14 11:29:00,89.7,73.0,29.89,East,82,0.0,0.0,58,0.00,,OVC,0.00,WeatherDisplay:10.37,2013-09-14 15:29:00,
2013-09-14 11:34:00,90.1,71.8,29.89,East,82,0.0,0.0,55,0.00,,OVC,0.00,WeatherDisplay:10.37,2013-09-14 15:34:00,
2013-09-14 11:39:00,90.3,70.3,29.89,East,82,0.0,0.0,52,0.00,,OVC,0.00,WeatherDisplay:10.37,2013-09-14 15:39:00,
2013-09-14 11:44:00,90.5,71.6,29.90,SE,126,0.0,0.0,54,0.00,,OVC,0.00,WeatherDisplay:10.37,2013-09-14 15:44:00,
2013-09-14 11:49:00,90.1,71.8,29.90,SE,133,0.0,0.0,55,0.00,,OVC,0.00,WeatherDisplay:10.37,2013-09-14 15:49:00,
2013-09-14 11:54:00,89.9,71.0,29.90,SE,142,0.0,0.0,54,0.00,,OVC,0.00,WeatherDisplay:10.37,2013-09-14 15:54:00,
2013-09-14 11:59:00,90.1,71.2,29.90,ENE,64,0.0,0.0,54,0.00,,OVC,0.00,WeatherDisplay:10.37,2013-09-14 15:59:00,
2013-09-14 12:04:00,90.3,70.8,29.90,ENE,69,0.0,0.0,53,0.00,,OVC,0.00,WeatherDisplay:10.37,2013-09-14 16:04:00,
2013-09-14 12:09:00,90.3,70.8,29.90,ESE,102,0.0,0.0,53,0.00,,OVC,0.00,WeatherDisplay:10.37,2013-09-14 16:09:00,
2013-09-14 12:14:00,90.3,71.4,29.89,ESE,102,0.0,0.0,54,0.00,,OVC,0.00,WeatherDisplay:10.37,2013-09-14 16:14:00,
2013-09-14 12:19:00,90.7,71.8,29.89,ESE,102,0.0,0.0,54,0.00,,OVC,0.00,WeatherDisplay:10.37,2013-09-14 16:19:00,
2013-09-14 12:24:00,90.3,71.4,29.89,ESE,122,0.0,0.0,54,0.00,,OVC,0.00,WeatherDisplay:10.37,2013-09-14 16:24:00,
2013-09-14 12:29:00,90.3,71.9,29.89,ENE,68,0.0,0.0,55,0.00,,OVC,0.00,WeatherDisplay:10.37,2013-09-14 16:29:00,
2013-09-14 12:34:00,90.5,72.7,29.89,SE,134,0.0,0.0,56,0.00,,OVC,0.00,WeatherDisplay:10.37,2013-09-14 16:34:00,
2013-09-14 12:39:00,91.0,72.0,29.89,SE,130,0.0,0.0,54,0.00,,OVC,0.00,WeatherDisplay:10.37,2013-09-14 16:39:00,
2013-09-14 12:44:00,90.1,72.8,29.89,ENE,64,0.0,0.0,57,0.00,,OVC,0.00,WeatherDisplay:10.37,2013-09-14 16:44:00,
2013-09-14 12:49:00,89.0,72.3,29.89,ENE,64,0.0,0.0,58,0.00,,OVC,0.00,WeatherDisplay:10.37,2013-09-14 16:49:00,
2013-09-14 12:54:00,88.6,72.4,29.89,ESE,109,0.0,0.0,59,0.00,,OVC,0.00,WeatherDisplay:10.37,2013-09-14 16:54:00,
2013-09-14 12:59:00,89.3,69.9,29.88,ENE,67,6.9,6.9,53,0.00,,OVC,0.00,WeatherDisplay:10.37,2013-09-14 16:59:00,
2013-09-14 13:04:00,89.9,69.9,29.88,NE,44,11.5,11.5,52,0.00,,OVC,0.00,WeatherDisplay:10.37,2013-09-14 17:04:00,
2013-09-14 13:09:00,90.3,69.7,29.88,ENE,60,0.0,0.0,51,0.00,,OVC,0.00,WeatherDisplay:10.37,2013-09-14 17:09:00,
2013-09-14 13:14:00,91.0,69.2,29.88,ENE,57,2.3,0.0,49,0.00,,OVC,0.00,WeatherDisplay:10.37,2013-09-14 17:14:00,
2013-09-14 13:19:00,90.3,68.5,29.88,ENE,78,0.0,0.0,49,0.00,,OVC,0.00,WeatherDisplay:10.37,2013-09-14 17:19:00,
2013-09-14 13:24:00,90.5,69.9,29.88,SE,132,1.2,0.0,51,0.00,,OVC,0.00,WeatherDisplay:10.37,2013-09-14 17:24:00,
2013-09-14 13:29:00,91.0,70.4,29.88,ESE,122,0.0,0.0,51,0.00,,OVC,0.00,WeatherDisplay:10.37,2013-09-14 17:29:00,
2013-09-14 13:34:00,91.2,70.5,29.88,SE,134,1.2,0.0,51,0.00,,OVC,0.00,WeatherDisplay:10.37,2013-09-14 17:34:00,
2013-09-14 13:39:00,91.4,70.7,29.88,ESE,116,0.0,0.0,51,0.00,,OVC,0.00,WeatherDisplay:10.37,2013-09-14 17:39:00,
2013-09-14 13:44:00,91.4,70.1,29.87,East,91,15.0,15.0,50,0.00,,OVC,0.00,WeatherDisplay:10.37,2013-09-14 17:44:00,
2013-09-14 13:49:00,90.7,68.9,29.87,SE,126,29.9,29.9,49,0.00,,OVC,0.00,WeatherDisplay:10.37,2013-09-14 17:49:00,
2013-09-14 13:54:00,90.7,70.1,29.87,ENE,63,2.3,0.0,51,0.00,,OVC,0.00,WeatherDisplay:10.37,2013-09-14 17:54:00,
2013-09-14 13:59:00,91.0,70.4,29.87,SSE,157,6.0,6.0,51,0.00,,OVC,0.00,WeatherDisplay:10.37,2013-09-14 17:59:00,
2013-09-14 14:04:00,91.2,70.0,29.87,East,82,0.0,0.0,50,0.00,,OVC,0.00,WeatherDisplay:10.37,2013-09-14 18:04:00,
2013-09-14 14:09:00,91.6,70.3,29.87,SE,130,2.3,2.3,50,0.00,,OVC,0.00,WeatherDisplay:10.37,2013-09-14 18:09:00,
2013-09-14 14:14:00,91.4,69.6,29.87,NE,46,0.0,0.0,49,0.00,,OVC,0.00,WeatherDisplay:10.37,2013-09-14 18:14:00,
2013-09-14 14:19:00,91.2,69.4,29.87,ENE,76,0.0,0.0,49,0.00,,OVC,0.00,WeatherDisplay:10.37,2013-09-14 18:19:00,
2013-09-14 14:24:00,91.2,69.4,29.87,ENE,65,12.7,12.7,49,0.00,,OVC,0.00,WeatherDisplay:10.37,2013-09-14 18:24:00,
2013-09-14 14:29:00,90.7,68.9,29.86,SE,126,2.3,2.3,49,0.00,,OVC,0.00,WeatherDisplay:10.37,2013-09-14 18:29:00,
2013-09-14 14:34:00,90.3,69.1,29.86,NE,34,0.0,0.0,50,0.00,,OVC,0.00,WeatherDisplay:10.37,2013-09-14 18:34:00,
2013-09-14 14:39:00,90.3,67.9,29.86,NE,49,0.0,0.0,48,0.00,,OVC,0.00,WeatherDisplay:10.37,2013-09-14 18:39:00,
2013-09-14 14:44:00,90.7,70.1,29.86,NNE,28,12.7,0.0,51,0.00,,OVC,0.00,WeatherDisplay:10.37,2013-09-14 18:44:00,
2013-09-14 14:49:00,91.0,69.2,29.86,ESE,114,1.2,1.2,49,0.00,,OVC,0.00,WeatherDisplay:10.37,2013-09-14 18:49:00,
2013-09-14 14:54:00,91.4,69.0,29.86,ENE,63,1.2,0.0,48,0.00,,OVC,0.00,WeatherDisplay:10.37,2013-09-14 18:54:00,
2013-09-14 14:59:00,91.6,69.7,29.85,ESE,123,1.2,1.2,49,0.00,,OVC,0.00,WeatherDisplay:10.37,2013-09-14 18:59:00,
2013-09-14 15:04:00,90.7,70.7,29.85,ESE,123,13.8,13.8,52,0.00,,OVC,0.00,WeatherDisplay:10.37,2013-09-14 19:04:00,
2013-09-14 15:09:00,90.3,69.7,29.85,NE,54,12.7,12.7,51,0.00,,OVC,0.00,WeatherDisplay:10.37,2013-09-14 19:09:00,
2013-09-14 15:14:00,90.3,70.8,29.85,East,83,0.0,0.0,53,0.00,,OVC,0.00,WeatherDisplay:10.37,2013-09-14 19:14:00,
2013-09-14 15:19:00,90.3,69.1,29.85,ENE,75,0.0,0.0,50,0.00,,OVC,0.00,WeatherDisplay:10.37,2013-09-14 19:19:00,
2013-09-14 15:24:00,90.3,70.3,29.85,ENE,59,11.5,0.0,52,0.00,,OVC,0.00,WeatherDisplay:10.37,2013-09-14 19:24:00,
2013-09-14 15:30:00,90.3,69.1,29.86,ENE,67,0.0,0.0,50,0.00,,OVC,0.00,WeatherDisplay:10.37,2013-09-14 19:30:00,
2013-09-14 15:35:00,90.5,69.9,29.86,East,82,10.4,0.0,51,0.00,,OVC,0.00,WeatherDisplay:10.37,2013-09-14 19:35:00,
2013-09-14 15:40:00,90.3,68.5,29.86,East,98,0.0,0.0,49,0.00,,OVC,0.00,WeatherDisplay:10.37,2013-09-14 19:40:00,
2013-09-14 15:45:00,90.3,70.8,29.86,SE,140,0.0,0.0,53,0.00,,OVC,0.00,WeatherDisplay:10.37,2013-09-14 19:45:00,
2013-09-14 15:50:00,90.3,69.7,29.86,East,101,0.0,0.0,51,0.00,,OVC,0.00,WeatherDisplay:10.37,2013-09-14 19:50:00,
2013-09-14 15:55:00,90.1,69.5,29.86,ENE,62,11.5,0.0,51,0.00,,OVC,0.00,WeatherDisplay:10.37,2013-09-14 19:55:00,
2013-09-14 16:00:00,90.1,69.5,29.86,SE,136,10.4,0.0,51,0.00,,OVC,0.00,WeatherDisplay:10.37,2013-09-14 20:00:00,
2013-09-14 16:05:00,89.9,71.0,29.86,ENE,67,2.3,0.0,54,0.00,,OVC,0.00,WeatherDisplay:10.37,2013-09-14 20:05:00,
2013-09-14 16:10:00,89.9,71.0,29.86,NE,53,0.0,0.0,54,0.00,,OVC,0.00,WeatherDisplay:10.37,2013-09-14 20:10:00,
2013-09-14 16:15:00,89.5,70.7,29.86,ESE,108,0.0,0.6,54,0.00,,OVC,0.00,WeatherDisplay:10.37,2013-09-14 20:15:00,
2013-09-14 16:20:00,89.5,70.7,29.86,ENE,61,0.0,0.0,54,0.00,,OVC,0.00,WeatherDisplay:10.37,2013-09-14 20:20:00,
2013-09-14 16:25:00,89.5,70.1,29.86,ESE,118,0.0,0.0,53,0.00,,OVC,0.00,WeatherDisplay:10.37,2013-09-14 20:25:00,
2013-09-14 16:30:00,89.5,71.2,29.86,SE,143,0.0,0.3,55,0.00,,OVC,0.00,WeatherDisplay:10.37,2013-09-14 20:30:00,
2013-09-14 16:35:00,89.7,71.4,29.86,East,84,0.0,0.0,55,0.00,,OVC,0.00,WeatherDisplay:10.37,2013-09-14 20:35:00,
2013-09-14 16:40:00,89.7,70.3,29.86,ESE,106,0.0,0.0,53,0.00,,OVC,0.00,WeatherDisplay:10.37,2013-09-14 20:40:00,
2013-09-14 16:45:00,89.7,71.9,29.86,SE,141,0.0,0.0,56,0.00,,OVC,0.00,WeatherDisplay:10.37,2013-09-14 20:45:00,
2013-09-14 16:50:00,89.5,70.1,29.86,SE,130,0.0,0.0,53,0.00,,OVC,0.00,WeatherDisplay:10.37,2013-09-14 20:50:00,
2013-09-14 16:55:00,89.5,72.3,29.86,SSE,148,0.0,0.0,57,0.00,,OVC,0.00,WeatherDisplay:10.37,2013-09-14 20:55:00,
2013-09-14 17:00:00,89.3,72.1,29.86,SE,138,5.8,5.8,57,0.00,,OVC,0.00,WeatherDisplay:10.37,2013-09-14 21:00:00,
2013-09-14 17:05:00,88.8,71.1,29.86,North,5,0.0,0.0,56,0.00,,OVC,0.00,WeatherDisplay:10.37,2013-09-14 21:05:00,
2013-09-14 17:10:00,88.6,71.4,29.86,ENE,67,0.0,0.0,57,0.00,,OVC,0.00,WeatherDisplay:10.37,2013-09-14 21:10:00,
2013-09-14 17:15:00,88.6,71.4,29.86,ESE,123,0.0,0.0,57,0.00,,OVC,0.00,WeatherDisplay:10.37,2013-09-14 21:15:00,
2013-09-14 17:20:00,88.2,71.6,29.86,SSE,153,0.0,0.0,58,0.00,,OVC,0.00,WeatherDisplay:10.37,2013-09-14 21:20:00,
2013-09-14 17:25:00,87.8,72.2,29.86,East,88,11.5,11.5,60,0.00,,OVC,0.00,WeatherDisplay:10.37,2013-09-14 21:25:00,
2013-09-14 17:30:00,87.2,72.1,29.86,NE,37,2.3,2.3,61,0.00,,OVC,0.00,WeatherDisplay:10.37,2013-09-14 21:30:00,
2013-09-14 17:35:00,87.2,72.1,29.86,East,87,8.1,8.1,61,0.00,,OVC,0.00,WeatherDisplay:10.37,2013-09-14 21:35:00,
2013-09-14 17:40:00,87.0,71.9,29.86,SE,130,5.8,5.8,61,0.00,,OVC,0.00,WeatherDisplay:10.37,2013-09-14 21:40:00,
2013-09-14 17:45:00,87.2,73.1,29.87,ENE,57,0.0,0.0,63,0.00,,OVC,0.00,WeatherDisplay:10.37,2013-09-14 21:45:00,
2013-09-14 17:50:00,87.0,72.4,29.87,SE,136,0.0,0.0,62,0.00,,OVC,0.00,WeatherDisplay:10.37,2013-09-14 21:50:00,
2013-09-14 17:55:00,87.0,72.9,29.87,SE,144,0.0,0.0,63,0.00,,OVC,0.00,WeatherDisplay:10.37,2013-09-14 21:55:00,
2013-09-14 18:00:00,86.7,72.1,29.88,ENE,65,0.0,0.0,62,0.00,,OVC,0.00,WeatherDisplay:10.37,2013-09-14 22:00:00,
2013-09-14 18:05:00,86.5,71.9,29.88,ENE,71,0.0,0.0,62,0.00,,OVC,0.00,WeatherDisplay:10.37,2013-09-14 22:05:00,
2013-09-14 18:10:00,86.5,71.9,29.88,SSE,149,0.0,0.0,62,0.00,,OVC,0.00,WeatherDisplay:10.37,2013-09-14 22:10:00,
2013-09-14 18:15:00,86.5,71.9,29.88,East,80,0.0,0.0,62,0.00,,OVC,0.00,WeatherDisplay:10.37,2013-09-14 22:15:00,
2013-09-14 18:20:00,86.5,71.0,29.88,SSE,150,0.0,0.0,60,0.00,,OVC,0.00,WeatherDisplay:10.37,2013-09-14 22:20:00,
2013-09-14 18:25:00,86.3,71.3,29.88,SE,126,0.0,0.0,61,0.00,,OVC,0.00,WeatherDisplay:10.37,2013-09-14 22:25:00,
2013-09-14 18:30:00,86.1,71.6,29.88,ENE,59,0.0,0.0,62,0.00,,OVC,0.00,WeatherDisplay:10.37,2013-09-14 22:30:00,
2013-09-14 18:35:00,85.9,71.8,29.88,NE,42,0.0,0.0,63,0.00,,OVC,0.00,WeatherDisplay:10.37,2013-09-14 22:35:00,
2013-09-14 18:40:00,85.7,71.2,29.88,ESE,123,0.0,0.0,62,0.00,,OVC,0.00,WeatherDisplay:10.37,2013-09-14 22:40:00,
2013-09-14 18:45:00,85.7,71.7,29.87,NE,51,0.0,0.0,63,0.00,,OVC,0.00,WeatherDisplay:10.37,2013-09-14 22:45:00,
2013-09-14 18:49:00,85.5,71.5,29.87,SSE,158,0.0,0.0,63,0.00,,OVC,0.00,WeatherDisplay:10.37,2013-09-14 22:49:00,
2013-09-14 18:54:00,85.3,71.3,29.87,NE,50,0.0,0.0,63,0.00,,OVC,0.00,WeatherDisplay:10.37,2013-09-14 22:54:00,
2013-09-14 18:59:00,85.3,71.7,29.87,East,98,0.0,0.0,64,0.00,,OVC,0.00,WeatherDisplay:10.37,2013-09-14 22:59:00,
2013-09-14 19:04:00,85.1,71.5,29.87,NE,51,0.0,0.0,64,0.00,,OVC,0.00,WeatherDisplay:10.37,2013-09-14 23:04:00,
2013-09-14 19:09:00,84.9,71.8,29.87,NE,51,0.0,0.0,65,0.00,,OVC,0.00,WeatherDisplay:10.37,2013-09-14 23:09:00,
2013-09-14 19:14:00,84.7,72.1,29.86,SE,142,0.0,0.0,66,0.00,,OVC,0.00,WeatherDisplay:10.37,2013-09-14 23:14:00,
2013-09-14 19:19:00,84.5,72.3,29.86,ENE,62,2.0,2.0,67,0.00,,OVC,0.00,WeatherDisplay:10.37,2013-09-14 23:19:00,
2013-09-14 19:24:00,84.3,72.1,29.86,NE,56,4.6,4.6,67,0.00,,OVC,0.00,WeatherDisplay:10.37,2013-09-14 23:24:00,
2013-09-14 19:29:00,84.1,72.4,29.87,ENE,61,3.5,0.0,68,0.00,,OVC,0.00,WeatherDisplay:10.37,2013-09-14 23:29:00,
2013-09-14 19:34:00,84.0,72.3,29.87,ENE,71,0.0,0.0,68,0.00,,OVC,0.00,WeatherDisplay:10.37,2013-09-14 23:34:00,
2013-09-14 19:39:00,84.0,72.7,29.87,ENE,70,0.0,0.0,69,0.00,,OVC,0.00,WeatherDisplay:10.37,2013-09-14 23:39:00,
2013-09-14 19:44:00,83.8,72.5,29.87,ENE,63,9.2,9.2,69,0.00,,OVC,0.00,WeatherDisplay:10.37,2013-09-14 23:44:00,
2013-09-14 19:49:00,83.8,72.5,29.87,ENE,58,4.6,0.0,69,0.00,,OVC,0.00,WeatherDisplay:10.37,2013-09-14 23:49:00,
2013-09-14 19:54:00,83.8,73.0,29.87,ENE,67,2.3,2.3,70,0.00,,OVC,0.00,WeatherDisplay:10.37,2013-09-14 23:54:00,
2013-09-14 19:59:00,83.6,73.2,29.87,NE,49,0.0,0.0,71,0.00,,OVC,0.00,WeatherDisplay:10.37,2013-09-14 23:59:00,
2013-09-14 20:04:00,83.6,74.0,29.87,ENE,61,0.0,0.0,73,0.00,,OVC,0.00,WeatherDisplay:10.37,2013-09-15 00:04:00,
2013-09-14 20:09:00,83.6,74.4,29.87,ENE,72,10.4,0.0,74,0.00,,OVC,0.00,WeatherDisplay:10.37,2013-09-15 00:09:00,
2013-09-14 20:14:00,83.4,74.2,29.87,ENE,71,9.0,9.0,74,0.00,,OVC,0.00,WeatherDisplay:10.37,2013-09-15 00:14:00,
2013-09-14 20:19:00,83.4,74.2,29.87,East,86,10.4,0.0,74,0.00,,OVC,0.00,WeatherDisplay:10.37,2013-09-15 00:19:00,
2013-09-14 20:24:00,83.4,74.6,29.87,ENE,69,0.0,0.0,75,0.00,,OVC,0.00,WeatherDisplay:10.37,2013-09-15 00:24:00,
2013-09-14 20:29:00,83.2,74.4,29.88,ENE,74,0.0,0.0,75,0.00,,OVC,0.00,WeatherDisplay:10.37,2013-09-15 00:29:00,
2013-09-14 20:35:00,83.2,74.4,29.88,ENE,73,0.0,0.0,75,0.00,,OVC,0.00,WeatherDisplay:10.37,2013-09-15 00:35:00,
2013-09-14 20:40:00,83.2,74.4,29.88,East,93,0.0,0.0,75,0.00,,OVC,0.00,WeatherDisplay:10.37,2013-09-15 00:40:00,
2013-09-14 20:45:00,83.2,74.8,29.89,ENE,63,3.5,3.5,76,0.00,,OVC,0.00,WeatherDisplay:10.37,2013-09-15 00:45:00,
2013-09-14 20:50:00,83.2,74.8,29.89,East,88,0.0,0.0,76,0.00,,OVC,0.00,WeatherDisplay:10.37,2013-09-15 00:50:00,
2013-09-14 20:55:00,83.2,74.8,29.89,ENE,61,4.6,4.6,76,0.00,,OVC,0.00,WeatherDisplay:10.37,2013-09-15 00:55:00,
2013-09-14 21:00:00,83.2,74.8,29.90,ENE,59,1.2,1.2,76,0.00,,OVC,0.00,WeatherDisplay:10.37,2013-09-15 01:00:00,
2013-09-14 21:05:00,83.2,74.8,29.90,ENE,72,0.0,1.0,76,0.00,,OVC,0.00,WeatherDisplay:10.37,2013-09-15 01:05:00,
2013-09-14 21:10:00,83.2,74.8,29.90,NE,51,5.8,0.0,76,0.00,,OVC,0.00,WeatherDisplay:10.37,2013-09-15 01:10:00,
2013-09-14 21:15:00,83.4,75.0,29.91,NE,51,0.0,0.0,76,0.00,,OVC,0.00,WeatherDisplay:10.37,2013-09-15 01:15:00,
2013-09-14 21:20:00,83.2,74.8,29.91,SE,128,10.4,10.4,76,0.00,,OVC,0.00,WeatherDisplay:10.37,2013-09-15 01:20:00,
2013-09-14 21:25:00,83.2,74.8,29.91,SE,136,0.0,0.0,76,0.00,,OVC,0.00,WeatherDisplay:10.37,2013-09-15 01:25:00,
2013-09-14 21:30:00,83.2,74.8,29.92,ENE,61,0.0,0.0,76,0.00,,OVC,0.00,WeatherDisplay:10.37,2013-09-15 01:30:00,
2013-09-14 21:35:00,83.2,74.8,29.92,ESE,112,0.0,0.0,76,0.00,,OVC,0.00,WeatherDisplay:10.37,2013-09-15 01:35:00,
2013-09-14 21:40:00,83.2,74.8,29.92,NNE,21,1.2,0.0,76,0.00,,OVC,0.00,WeatherDisplay:10.37,2013-09-15 01:40:00,
2013-09-14 21:45:00,83.2,74.4,29.93,SE,132,0.0,0.0,75,0.00,,OVC,0.00,WeatherDisplay:10.37,2013-09-15 01:45:00,
2013-09-14 21:50:00,83.2,74.4,29.93,East,88,0.0,0.1,75,0.00,,OVC,0.00,WeatherDisplay:10.37,2013-09-15 01:50:00,
2013-09-14 21:55:00,83.2,74.4,29.93,ENE,59,4.6,4.6,75,0.00,,OVC,0.00,WeatherDisplay:10.37,2013-09-15 01:55:00,
2013-09-14 22:00:00,83.2,74.0,29.93,ENE,74,15.0,15.0,74,0.00,,OVC,0.00,WeatherDisplay:10.37,2013-09-15 02:00:00,
2013-09-14 22:05:00,83.2,74.0,29.93,ESE,102,0.0,0.0,74,0.00,,OVC,0.00,WeatherDisplay:10.37,2013-09-15 02:05:00,
2013-09-14 22:10:00,83.2,73.6,29.93,ENE,71,9.0,9.0,73,0.00,,OVC,0.00,WeatherDisplay:10.37,2013-09-15 02:10:00,
2013-09-14 22:15:00,83.2,73.2,29.94,ENE,72,0.0,0.1,72,0.00,,OVC,0.00,WeatherDisplay:10.37,2013-09-15 02:15:00,
2013-09-14 22:20:00,83.2,73.2,29.94,ENE,72,0.0,0.0,72,0.00,,OVC,0.00,WeatherDisplay:10.37,2013-09-15 02:20:00,
2013-09-14 22:25:00,83.0,73.0,29.94,ESE,113,0.0,0.0,72,0.00,,OVC,0.00,WeatherDisplay:10.37,2013-09-15 02:25:00,
2013-09-14 22:30:00,83.0,73.4,29.94,ENE,71,0.0,0.0,73,0.00,,OVC,0.00,WeatherDisplay:10.37,2013-09-15 02:30:00,
2013-09-14 22:35:00,82.8,73.3,29.94,ENE,69,0.0,0.0,73,0.00,,OVC,0.00,WeatherDisplay:10.37,2013-09-15 02:35:00,
2013-09-14 22:40:00,82.8,73.7,29.94,ENE,70,0.0,0.0,74,0.00,,OVC,0.00,WeatherDisplay:10.37,2013-09-15 02:40:00,
2013-09-14 22:45:00,82.6,73.5,29.93,ENE,70,0.0,0.0,74,0.00,,OVC,0.00,WeatherDisplay:10.37,2013-09-15 02:45:00,
2013-09-14 22:50:00,82.6,73.9,29.93,ENE,71,0.0,0.0,75,0.00,,OVC,0.00,WeatherDisplay:10.37,2013-09-15 02:50:00,
2013-09-14 22:55:00,82.4,73.7,29.93,ENE,73,0.0,0.0,75,0.00,,OVC,0.00,WeatherDisplay:10.37,2013-09-15 02:55:00,
2013-09-14 23:00:00,82.4,74.1,29.93,NE,44,0.0,0.0,76,0.00,,OVC,0.00,WeatherDisplay:10.37,2013-09-15 03:00:00,
2013-09-14 23:05:00,82.2,73.9,29.93,NE,44,0.0,0.0,76,0.00,,OVC,0.00,WeatherDisplay:10.37,2013-09-15 03:05:00,
2013-09-14 23:10:00,82.2,74.3,29.93,ENE,77,0.0,0.0,77,0.00,,OVC,0.00,WeatherDisplay:10.37,2013-09-15 03:10:00,
2013-09-14 23:15:00,82.2,74.3,29.93,ENE,77,0.0,0.0,77,0.00,,OVC,0.00,WeatherDisplay:10.37,2013-09-15 03:15:00,
2013-09-14 23:20:00,82.2,74.3,29.93,ENE,57,0.0,0.0,77,0.00,,OVC,0.00,WeatherDisplay:10.37,2013-09-15 03:20:00,
2013-09-14 23:25:00,82.2,74.7,29.93,ENE,57,0.0,0.0,78,0.00,,OVC,0.00,WeatherDisplay:10.37,2013-09-15 03:25:00,
2013-09-14 23:30:00,82.0,74.5,29.92,ENE,57,0.0,0.0,78,0.00,,OVC,0.00,WeatherDisplay:10.37,2013-09-15 03:30:00,
2013-09-14 23:35:00,82.0,74.5,29.92,ENE,59,0.0,0.0,78,0.00,,OVC,0.00,WeatherDisplay:10.37,2013-09-15 03:35:00,
2013-09-14 23:40:00,82.0,74.5,29.92,East,89,0.0,0.0,78,0.00,,OVC,0.00,WeatherDisplay:10.37,2013-09-15 03:40:00,
2013-09-14 23:45:00,82.0,74.5,29.93,East,89,0.0,0.0,78,0.00,,OVC,0.00,WeatherDisplay:10.37,2013-09-15 03:45:00,
2013-09-14 23:50:00,82.0,74.5,29.93,East,90,0.0,0.0,78,0.00,,OVC,0.00,WeatherDisplay:10.37,2013-09-15 03:50:00,
2013-09-14 23:55:00,82.0,74.8,29.93,East,88,0.0,0.0,79,0.00,,OVC,0.00,WeatherDisplay:10.37,2013-09-15 03:55:00,